Вернуться в каталог

METEOR 3-5

АктивенПогодаPO
NORAD 21655·PAYLOAD·🇷🇺 Russia

Запущен Aug 15, 1991 с Plesetsk Cosmodrome

Loading…

Ближайшие Пролёты (ближайшие 24 часа)

TLE

СвежийSource: Space-Track

Эпоха: Sep 14, 2026, 21:43 UTC

1 21655U 91056A   26257.90534272 -.00000129  00000-0 -36646-3 0  9996
2 21655  82.5518  75.9619 0012231 273.1978  86.7745 13.17161072686380

Отслеживайте METEOR 3-5 в реальном времени с AllMySat

Download on the App Store